CW9928 Weather Reports


Display with metric or nautical units.
time (UTC)temp
F
wind
direction
speed
MPH
gust
MPH
rain 1hr
in
rain 24hr
in
rain mn
in
humidity
%
barometer
mb
20180925225211 72 215 0.0 6.0 0.00 0.27 0.17 84 1012.3
20180925224211 72 235 0.0 7.0 0.00 0.27 0.17 84 1012.5
20180925223211 72 169 0.0 5.0 0.00 0.27 0.17 84 1012.8
20180925222211 72 232 0.0 4.0 0.00 0.27 0.17 85 1012.8
20180925221211 72 235 0.0 2.0 0.00 0.27 0.17 84 1012.9
20180925220211 72 235 0.0 5.0 0.00 0.27 0.17 84 1013.0
20180925215211 72 212 0.0 4.0 0.00 0.27 0.17 84 1012.9
20180925214211 72 215 1.0 5.0 0.00 0.27 0.17 84 1012.9
20180925213211 72 215 2.0 5.0 0.00 0.27 0.17 84 1013.2
20180925212211 72 232 5.0 6.0 0.00 0.27 0.17 84 1013.1
20180925211211 72 239 0.0 1.0 0.00 0.27 0.17 84 1013.2
20180925210211 72 239 0.0 5.0 0.00 0.27 0.17 83 1013.3
20180925205211 72 236 0.0 5.0 0.00 0.27 0.17 83 1013.5
20180925204211 72 198 0.0 1.0 0.00 0.27 0.17 83 1013.6
20180925203211 72 184 0.0 6.0 0.00 0.27 0.17 83 1013.4
20180925202211 72 227 1.0 7.0 0.00 0.27 0.17 83 1013.3
20180925201211 72 229 0.0 5.0 0.00 0.27 0.17 84 1013.4
20180925200211 72 205 0.0 4.0 0.00 0.27 0.17 83 1013.6
20180925195211 72 204 1.0 6.0 0.00 0.27 0.17 83 1013.6
20180925194211 72 220 0.0 3.0 0.00 0.27 0.17 83 1013.7
20180925193211 72 221 1.0 5.0 0.00 0.27 0.17 83 1014.1
20180925192211 72 202 0.0 6.0 0.00 0.27 0.17 82 1014.3
20180925191210 72 148 0.0 4.0 0.00 0.27 0.17 82 1014.2
20180925190210 72 238 0.0 5.0 0.00 0.27 0.17 82 1014.3
20180925185211 72 264 0.0 5.0 0.00 0.27 0.17 81 1014.3
20180925184210 72 220 0.0 7.0 0.00 0.27 0.17 81 1014.3
20180925183211 72 211 0.0 6.0 0.00 0.27 0.17 81 1014.3
20180925182211 72 225 2.0 4.0 0.00 0.27 0.17 81 1014.3
20180925181210 72 230 2.0 5.0 0.00 0.27 0.17 80 1014.4
20180925180210 72 240 2.0 6.0 0.00 0.27 0.17 81 1014.6
20180925175211 72 217 3.0 8.0 0.00 0.27 0.17 80 1014.8
20180925174211 73 240 2.0 8.0 0.00 0.27 0.17 80 1014.7
20180925173211 72 270 8.0 8.0 0.00 0.27 0.17 81 1014.8
20180925172210 72 212 4.0 11.0 0.00 0.27 0.17 82 1015.0
20180925171210 71 229 0.0 6.0 0.00 0.27 0.17 83 1015.1
20180925170211 71 228 1.0 7.0 0.00 0.27 0.17 83 1015.1
20180925165211 70 225 0.0 6.0 0.00 0.27 0.17 83 1015.1
20180925164212 70 253 2.0 7.0 0.00 0.27 0.17 84 1014.9
20180925163211 69 179 0.0 8.0 0.00 0.27 0.17 84 1015.3
20180925162210 69 195 0.0 4.0 0.00 0.27 0.17 85 1015.3
20180925161210 69 204 2.0 6.0 0.00 0.27 0.17 85 1015.4
20180925160211 68 207 2.0 6.0 0.00 0.27 0.17 86 1015.5
20180925155211 68 220 0.0 6.0 0.00 0.27 0.17 86 1015.7
20180925154210 67 209 0.0 5.0 0.00 0.27 0.17 88 1015.7
20180925153211 67 244 5.0 7.0 0.00 0.27 0.17 89 1015.8
20180925152210 66 210 0.0 9.0 0.00 0.27 0.17 90 1015.9
20180925151210 66 232 1.0 8.0 0.00 0.27 0.17 90 1016.0
20180925150210 66 113 0.0 5.0 0.00 0.27 0.17 90 1015.9
20180925145210 65 188 2.0 13.0 0.00 0.27 0.17 91 1016.0
20180925144210 65 290 13.0 13.0 0.00 0.27 0.17 90 1016.0
20180925143210 65 205 0.0 10.0 0.00 0.27 0.17 89 1016.3
20180925142211 65 217 0.0 6.0 0.00 0.27 0.17 88 1016.3
20180925141213 65 221 5.0 6.0 0.00 0.27 0.17 88 1016.3
20180925140211 65 250 6.0 7.0 0.00 0.27 0.17 87 1016.3
20180925135210 65 266 7.0 11.0 0.00 0.27 0.17 87 1016.4
20180925134210 65 240 4.0 5.0 0.00 0.27 0.17 88 1016.2
20180925133210 64 69 2.0 8.0 0.00 0.27 0.17 88 1016.1
20180925132211 64 226 8.0 9.0 0.00 0.27 0.17 89 1016.2
20180925131211 64 229 0.0 9.0 0.00 0.27 0.17 89 1016.5
20180925130211 63 178 2.0 9.0 0.00 0.27 0.17 90 1016.7
20180925125211 63 206 5.0 5.0 0.00 0.27 0.17 90 1016.7
20180925124210 63 165 1.0 6.0 0.00 0.27 0.17 90 1016.9
20180925123211 63 258 6.0 7.0 0.00 0.27 0.17 90 1016.8
20180925122210 62 173 0.0 6.0 0.00 0.27 0.17 90 1016.7
20180925121211 62 179 1.0 8.0 0.00 0.27 0.17 91 1016.8
20180925120212 62 221 1.0 5.0 0.00 0.27 0.17 91 1017.0
20180925115210 61 242 0.0 7.0 0.00 0.27 0.17 91 1017.1
20180925114211 61 255 0.0 4.0 0.00 0.27 0.17 91 1017.2
20180925113210 61 63 0.0 5.0 0.00 0.27 0.17 91 1017.2
20180925112212 61 217 0.0 4.0 0.00 0.27 0.17 91 1017.4
20180925111210 61 215 4.0 6.0 0.00 0.27 0.17 91 1017.4
20180925110210 60 190 0.0 6.0 0.00 0.27 0.17 91 1017.4
20180925105210 60 211 1.0 6.0 0.00 0.27 0.17 91 1017.6
20180925104210 60 209 0.0 4.0 0.00 0.27 0.17 91 1017.7
20180925103210 60 222 0.0 2.0 0.00 0.27 0.17 91 1017.7
20180925102210 60 151 0.0 5.0 0.00 0.27 0.17 91 1017.8
20180925101210 60 145 7.0 7.0 0.00 0.27 0.17 91 1017.7
20180925100210 60 200 0.0 7.0 0.01 0.27 0.17 92 1017.8
20180925095210 60 216 0.0 4.0 0.01 0.27 0.17 92 1018.0
20180925094210 60 202 2.0 7.0 0.01 0.27 0.17 92 1018.1
20180925093210 60 68 2.0 4.0 0.02 0.27 0.17 92 1018.1
20180925092210 60 144 1.0 6.0 0.02 0.27 0.17 92 1018.2
20180925091211 60 202 1.0 5.0 0.02 0.27 0.17 92 1018.3
20180925090210 60 234 5.0 5.0 0.01 0.26 0.16 92 1018.4
20180925085210 60 119 0.0 7.0 0.01 0.26 0.16 92 1018.7
20180925084210 60 223 5.0 5.0 0.01 0.26 0.16 92 1018.7
20180925083210 60 304 0.0 5.0 0.01 0.25 0.15 92 1018.7
20180925082210 60 157 4.0 8.0 0.01 0.25 0.15 92 1018.7
20180925081210 60 220 0.0 5.0 0.01 0.25 0.15 92 1018.7
20180925080211 60 281 0.0 4.0 0.01 0.25 0.15 92 1018.8
20180925075210 60 204 0.0 6.0 0.01 0.25 0.15 91 1019.1
20180925074210 60 176 0.0 4.0 0.01 0.25 0.15 91 1019.2
20180925073210 60 190 0.0 5.0 0.00 0.24 0.14 91 1019.4
20180925072210 60 166 0.0 2.0 0.01 0.24 0.14 91 1019.7
20180925071210 60 134 0.0 5.0 0.01 0.24 0.14 91 1019.9
20180925070210 60 313 0.0 5.0 0.01 0.24 0.14 91 1019.9
20180925065210 60 205 0.0 5.0 0.01 0.24 0.14 92 1020.0
20180925064210 60 180 1.0 6.0 0.02 0.24 0.14 92 1020.1
20180925063210 60 298 0.0 3.0 0.04 0.24 0.14 92 1020.3
20180925062210 60 171 0.0 4.0 0.04 0.23 0.13 92 1020.3
20180925061210 61 212 0.0 3.0 0.07 0.23 0.13 92 1020.6
20180925060210 61 213 0.0 4.0 0.09 0.23 0.13 91 1020.7
20180925055210 61 211 0.0 5.0 0.10 0.23 0.13 91 1020.7
20180925054210 61 215 2.0 3.0 0.09 0.22 0.12 91 1020.9
20180925053211 61 209 0.0 5.0 0.08 0.20 0.10 91 1020.9
20180925052210 61 131 1.0 2.0 0.08 0.19 0.09 91 1021.1
20180925051210 61 113 0.0 11.0 0.06 0.16 0.06 91 1021.2
20180925050210 61 173 0.0 5.0 0.04 0.14 0.04 91 1021.4
20180925045210 61 211 0.0 2.0 0.04 0.13 0.03 91 1021.4
20180925044210 61 211 2.0 4.0 0.04 0.13 0.03 91 1021.6
20180925043210 61 211 0.0 1.0 0.03 0.12 0.02 91 1021.6
20180925042211 61 198 0.0 0.0 0.02 0.11 0.01 90 1021.7
20180925041210 61 198 0.0 0.0 0.01 0.10 0.00 90 1021.9
20180925040241 61 198 0.0 0.0 0.02 0.10 0.00 89 1021.9
20180925035212 61 198 0.0 0.0 0.09 0.09 0.09 89 1022.0
20180925034212 61 198 0.0 0.0 0.09 0.09 0.09 88 1022.0
20180925033212 61 198 0.0 3.0 0.09 0.09 0.09 87 1022.1
20180925032214 62 196 0.0 0.0 0.09 0.09 0.09 86 1022.1
20180925031213 62 196 0.0 0.0 0.09 0.09 0.09 84 1022.1
20180925030213 63 196 0.0 8.0 0.08 0.08 0.08 82 1022.1
20180925025211 65 153 1.0 3.0 0.00 0.00 0.00 77 1022.2
20180925024211 65 121 0.0 4.0 0.00 0.00 0.00 74 1022.0
20180925023213 66 117 1.0 5.0 0.00 0.00 0.00 70 1022.1
20180925022218 67 128 0.0 7.0 0.00 0.00 0.00 68 1022.1
20180925021215 67 168 0.0 2.0 0.00 0.00 0.00 69 1022.0
20180925020214 67 169 1.0 2.0 0.00 0.00 0.00 69 1022.1
20180925015214 67 157 0.0 4.0 0.00 0.00 0.00 70 1022.0
20180925014212 67 131 0.0 2.0 0.00 0.00 0.00 70 1022.2
20180925013211 67 133 0.0 1.0 0.00 0.00 0.00 70 1022.3
20180925012211 67 133 0.0 3.0 0.00 0.00 0.00 70 1022.3
20180925011212 67 262 0.0 7.0 0.00 0.00 0.00 70 1022.3
20180925010211 67 230 0.0 5.0 0.00 0.00 0.00 71 1022.2
20180925005212 67 323 0.0 4.0 0.00 0.00 0.00 72 1022.1
20180925004211 67 184 0.0 1.0 0.00 0.00 0.00 72 1022.1
20180925003212 67 99 0.0 1.0 0.00 0.00 0.00 72 1022.2
20180925002212 67 200 0.0 0.0 0.00 0.00 0.00 72 1022.3
20180925001211 68 200 0.0 1.0 0.00 0.00 0.00 72 1022.5
20180925000212 68 200 0.0 5.0 0.00 0.00 0.00 71 1022.5
20180924235212 68 166 0.0 4.0 0.00 0.00 0.00 71 1022.5
20180924234212 68 213 0.0 5.0 0.00 0.00 0.00 71 1022.5
20180924233212 68 246 1.0 4.0 0.00 0.00 0.00 72 1022.5
20180924232212 68 273 0.0 3.0 0.00 0.00 0.00 71 1022.6
20180924231211 68 229 0.0 5.0 0.00 0.00 0.00 70 1022.7
20180924230211 69 77 0.0 7.0 0.00 0.00 0.00 70 1022.9